User: anonymous   Login
Location: Dürabuch
(48.2640°N, 11.2185°E)
Time: 03:32:40
(UTC+00:00)
Language:

SL-4 R/B - Orbit

View from above orbital plane
View from above orbital plane
View from above satellite
View from above satellite

Ground track
Ground track

The orbit data is extracted from the following two-line orbital elements,

1 39679U 14021B   24194.47908374  .00012613  00000-0  45902-3 0  9990
2 39679  51.6075   9.1023 0135498  87.3662 274.2815 15.20354986563610
Epoch (UTC): 12 July 2024 11:29:52
Eccentricity: 0.0135498
inclination: 51.6075°
perigee height: 411 km
apogee height: 598 km
right ascension of ascending node: 9.1023°
argument of perigee: 87.3662°
revolutions per day: 15.20354986
mean anomaly at epoch: 274.2815°
orbit number at epoch: 56361

The dashed part of the orbit path shows where the satellite is in the earth's shadow,  

DLR